[[{"header":{"parameterUnit":"m.s-1","parameterCategory":1,"la1":30.2991,"la2":30.254,"lo1":-89.0895,"lo2":-89.0444,"dy":0.0017,"dx":0.0017,"nx":28,"ny":28,"refTime":"2025-07-18T09:00:00:Z","depth":0,"parameterNumber":2,"parameterNumberName":"U-component_of_WINDS"},"data":[0,0,0,0,0,0,0,0,0,0,0,0,0,0,0,0,0,0,0,0,0,0,0,0,0,0,0,0,0,0,0,0,0,0,0,0,0,0,0,0,0,0,0,0,0,0,0,0,0,0,0,0,0,0,0,0,0,0,0.7397,0.7397,0,0.7355,0.7355,0.7354,0.7281,0.7279,0.7278,0.7277,0.7236,0.7236,0.7236,0,0,0,0,0,0,0,0,0,0,0,0,0,0.7414,0.7414,0.7397,0.7397,0.7396,0.7355,0.7355,0.7354,0.7281,0.7279,0.7278,0.7276,0.7236,0.7236,0.7236,0,0,0,0,0,0,0,0,0,0,0,0,0,0.7393,0.7414,0.7397,0.7355,0.735,0.7355,0.7355,0.7354,0.7281,0.7279,0.7277,0.7275,0.7236,0.7236,0.7236,0.728,0,0,0.7237,0.7238,0,0,0,0,0,0,0,0,0.7395,0.7393,0.7361,0.7357,0.7353,0.7321,0.7346,0.7329,0.7282,0.7308,0.7277,0.7274,0.7266,0.7264,0.7261,0.7278,0.7277,0.7237,0.7238,0.7238,0.7238,0,0,0,0,0,0,0,0.7396,0.7394,0.738,0.7361,0.7356,0.7338,0.7332,0.7342,0.7299,0.7305,0.73,0.7296,0.7263,0.726,0.7259,0.7276,0.7237,0.7238,0.7238,0.7238,0.7326,0.7328,0,0,0,0,0,0,0.7404,0.7396,0.7382,0.7379,0.7369,0.7339,0.7333,0.7333,0.7299,0.7292,0.7298,0.7292,0.7261,0.7259,0.7257,0.7305,0.7238,0.7238,0.7238,0.7324,0.7326,0.7328,0,0,0,0,0,0,0.7404,0.7403,0.7384,0.7386,0.7382,0.7341,0.7342,0.7334,0.7331,0.7293,0.7285,0.7302,0.7259,0.7257,0.7275,0.7303,0.7238,0.7239,0.7321,0.7324,0.7327,0.7402,0,0,0,0,0,0,0.7405,0.7404,0.742,0.7387,0.7382,0.7402,0.7344,0.7334,0.7331,0.7324,0.7296,0.7289,0.7257,0.7274,0.7275,0.7302,0.7239,0.7318,0.7323,0.7326,0.7397,0.7407,0.7416,0,0,0,0,0,0.7406,0.7444,0.7421,0.742,0.7402,0.7403,0.7401,0.7363,0.7334,0.735,0.7325,0.729,0.73,0.7277,0.7277,0.7304,0.7316,0.7321,0.7326,0.7392,0.7405,0.7416,0,0,0,0,0,0,0.7482,0.7438,0.7413,0.7441,0.7426,0.7391,0.741,0.7378,0.7372,0.7366,0.732,0.7314,0.7338,0.7323,0.7298,0.7344,0.7302,0.7307,0.7353,0.7365,0.7374,0.7377,0.7239,0,0,0,0,0,0.7502,0.7507,0.7468,0.7497,0.749,0.7452,0.7451,0.7423,0.7406,0.74,0.7377,0.7362,0.7361,0.7362,0.736,0.7394,0.7386,0.7413,0.7423,0.7431,0.7436,0.7451,0.7462,0.7344,0.7344,0.7344,0,0,0.7544,0.752,0.7526,0.7511,0.7497,0.7502,0.7447,0.7456,0.7459,0.7401,0.7416,0.7399,0.7379,0.7405,0.7415,0.7393,0.7467,0.7437,0.7444,0.7444,0.7457,0.7469,0.7478,0.7348,0.7347,0.7346,0,0,0.7622,0.7605,0.7626,0.7612,0.759,0.7563,0.7568,0.7537,0.7523,0.7537,0.7493,0.7497,0.7497,0.7485,0.7478,0.755,0.7517,0.7551,0.7602,0.7617,0.7627,0.7635,0.7659,0.7669,0.7556,0.7556,0.7556,0,0.7676,0.7683,0.7641,0.7652,0.7646,0.7593,0.7613,0.7602,0.7581,0.7578,0.7554,0.7552,0.7535,0.7556,0.7574,0.7571,0.7575,0.7554,0.7629,0.7636,0.7643,0.7666,0.7675,0.756,0.756,0.7559,0.7559,0,0.775,0.7755,0.7775,0.7754,0.7751,0.7767,0.7727,0.7729,0.7701,0.7677,0.7691,0.7669,0.7661,0.7664,0.7637,0.7681,0.7668,0.7637,0.7594,0.7659,0.768,0.7688,0.7566,0.7565,0.7563,0.7562,0,0,0.7876,0.7831,0.7839,0.7828,0.7799,0.7802,0.7815,0.7806,0.7807,0.7794,0.7804,0.7805,0.7775,0.7768,0.774,0.7753,0.781,0.772,0.7719,0.7737,0.7855,0.7878,0.7889,0.7788,0.7789,0.779,0.7856,0,0.7948,0.7967,0.7929,0.7957,0.7961,0.7909,0.792,0.7904,0.7882,0.7881,0.7857,0.7858,0.7819,0.7815,0.7826,0.7801,0.7833,0.7796,0.7796,0.7796,0.7802,0.79,0.7925,0.7988,0.7864,0.7866,0.7867,0,0.8034,0.8023,0.8052,0.8019,0.8019,0.803,0.8018,0.8018,0.7998,0.7981,0.7972,0.7938,0.7948,0.7907,0.792,0.7895,0.7893,0.7881,0.7882,0.788,0.7835,0.79,0.8008,0.8017,0.7879,0.7878,0.7877,0,0.8121,0.8115,0.813,0.8123,0.8086,0.8094,0.808,0.8057,0.8053,0.8042,0.8039,0.8031,0.8026,0.8019,0.7983,0.7957,0.8,0.7956,0.7986,0.7987,0.7997,0.7997,0.8105,0.7997,0.7997,0.7997,0.7997,0,0.8205,0.8224,0.8169,0.8179,0.8198,0.8154,0.8175,0.8155,0.8135,0.814,0.8095,0.81,0.8053,0.8053,0.8025,0.8039,0.8038,0.8024,0.8016,0.8028,0.8029,0.8025,0.802,0.7999,0.7999,0.7998,0.7998,0,0.8306,0.827,0.8283,0.8247,0.8238,0.8254,0.8222,0.823,0.8204,0.821,0.8209,0.8169,0.8167,0.813,0.8121,0.8102,0.8127,0.8111,0.8134,0.8128,0.816,0.8157,0.8268,0.828,0.8166,0.8167,0.8168,0,0.8361,0.8375,0.8339,0.8338,0.8325,0.8325,0.832,0.8278,0.8275,0.8252,0.8262,0.8255,0.8248,0.8246,0.8217,0.8209,0.8192,0.8231,0.819,0.8201,0.8191,0.8191,0.8191,0.824,0.8242,0.8243,0.8244,0,0.8463,0.8444,0.8439,0.8427,0.8423,0.8412,0.8398,0.84,0.8353,0.8352,0.8348,0.8343,0.8331,0.8326,0.8312,0.8296,0.8262,0.8257,0.8263,0.8275,0.8287,0.8279,0.8157,0.8255,0.8253,0.8253,0.8252,0.8252,0.8542,0.8551,0.8527,0.8522,0.8507,0.8495,0.8499,0.8473,0.8469,0.8457,0.8432,0.8432,0.841,0.8387,0.8375,0.8374,0.8353,0.8363,0.8365,0.8368,0.8374,0.8287,0.8371,0.8371,0.8371,0.837,0.837,0,0.864,0.8622,0.8618,0.8599,0.8596,0.8563,0.8546,0.8545,0.8545,0.8527,0.852,0.8516,0.8509,0.8479,0.8469,0.8474,0.8458,0.8473,0.8472,0.8468,0.8393,0.8388,0.8486,0.8486,0.8486,0.8486,0.8486,0.8486,0.8691,0.8704,0.8682,0.8686,0.8667,0.8666,0.8659,0.8648,0.8633,0.8629,0.8623,0.8603,0.858,0.8567,0.856,0.8551,0.8549,0.8569,0.8555,0.8485,0.8474,0.8463,0.8458,0.8569,0.8569,0.863,0.8631,0.8631]},{"header":{"parameterUnit":"m.s-1","parameterCategory":1,"la1":30.2991,"la2":30.254,"lo1":-89.0895,"lo2":-89.0444,"dy":0.0017,"dx":0.0017,"nx":28,"ny":28,"refTime":"2025-07-18T09:00:00:Z","depth":0,"parameterNumber":3,"parameterNumberName":"V-component_of_WINDS"},"data":[0,0,0,0,0,0,0,0,0,0,0,0,0,0,0,0,0,0,0,0,0,0,0,0,0,0,0,0,0,0,0,0,0,0,0,0,0,0,0,0,0,0,0,0,0,0,0,0,0,0,0,0,0,0,0,0,0,0,5.8663,5.8664,0,5.869,5.869,5.869,5.8636,5.8635,5.8633,5.8631,5.8654,5.8656,5.8658,0,0,0,0,0,0,0,0,0,0,0,0,0,5.8563,5.8565,5.8663,5.8664,5.8664,5.869,5.869,5.869,5.8637,5.8635,5.8632,5.863,5.8653,5.8656,5.8659,0,0,0,0,0,0,0,0,0,0,0,0,0,5.8599,5.8566,5.8663,5.864,5.8639,5.869,5.869,5.869,5.8637,5.8635,5.8632,5.8629,5.8652,5.8656,5.8659,5.8732,0,0,5.8669,5.8671,0,0,0,0,0,0,0,0,5.8597,5.8603,5.8643,5.8642,5.864,5.8657,5.8663,5.8704,5.8638,5.8638,5.8631,5.8628,5.8657,5.866,5.867,5.8733,5.8734,5.867,5.8672,5.8673,5.8674,0,0,0,0,0,0,0,5.8595,5.8602,5.8674,5.8644,5.8642,5.8628,5.863,5.867,5.8661,5.8637,5.8634,5.8638,5.8655,5.8667,5.867,5.8734,5.8669,5.8672,5.8674,5.8676,5.8859,5.8862,0,0,0,0,0,0,5.8596,5.86,5.8673,5.8674,5.8612,5.8632,5.8634,5.8654,5.8661,5.8659,5.864,5.8635,5.8663,5.8667,5.8671,5.8757,5.8673,5.8676,5.8678,5.8856,5.886,5.8863,0,0,0,0,0,0,5.8594,5.8603,5.8672,5.8636,5.8644,5.8636,5.8659,5.8656,5.8668,5.8663,5.8661,5.8654,5.8661,5.8666,5.8718,5.8757,5.8678,5.8681,5.8853,5.8857,5.8861,5.893,0,0,0,0,0,0,5.8591,5.8603,5.8631,5.8637,5.8646,5.8719,5.8662,5.8659,5.8674,5.8668,5.8675,5.8674,5.8659,5.8713,5.8721,5.876,5.8683,5.8849,5.8855,5.886,5.8924,5.8936,5.8946,0,0,0,0,0,5.8588,5.8648,5.8633,5.8642,5.8682,5.8721,5.8726,5.8709,5.8678,5.8706,5.8703,5.8674,5.8752,5.8719,5.8727,5.8768,5.8847,5.8853,5.8859,5.8919,5.8933,5.8946,0,0,0,0,0,0,5.8644,5.8648,5.8631,5.8696,5.8709,5.8712,5.8747,5.8725,5.8746,5.874,5.8717,5.8719,5.8775,5.8776,5.874,5.8839,5.8794,5.8802,5.8836,5.885,5.8861,5.8858,5.8686,0,0,0,0,0,5.8665,5.8698,5.8699,5.8756,5.8764,5.8755,5.8771,5.8757,5.8769,5.8774,5.8775,5.8787,5.8814,5.8832,5.8857,5.8924,5.8925,5.8957,5.8968,5.8977,5.8984,5.902,5.9034,5.8884,5.8884,5.8884,0,0,5.8706,5.8713,5.8735,5.8767,5.8776,5.881,5.8759,5.8797,5.8822,5.8779,5.8828,5.883,5.8841,5.8901,5.8927,5.8904,5.9026,5.8985,5.8993,5.8995,5.9028,5.9042,5.9055,5.8888,5.8887,5.8887,0,0,5.8799,5.8808,5.8856,5.8866,5.8881,5.8875,5.8887,5.8894,5.8893,5.8943,5.8912,5.894,5.8988,5.8997,5.9008,5.9107,5.9081,5.9116,5.9173,5.9209,5.922,5.9231,5.9266,5.9278,5.9123,5.9124,5.9124,0,5.8848,5.8899,5.8883,5.8924,5.8939,5.8905,5.8953,5.8963,5.8984,5.8995,5.8969,5.9029,5.9034,5.9096,5.912,5.9131,5.9143,5.9114,5.922,5.9231,5.924,5.9273,5.9286,5.9128,5.9127,5.9127,5.9126,0,5.8959,5.8995,5.9032,5.9056,5.9075,5.912,5.9109,5.913,5.9116,5.9112,5.9163,5.9168,5.9194,5.9208,5.9192,5.9268,5.9253,5.9224,5.9178,5.9259,5.9289,5.9302,5.9134,5.9132,5.9131,5.913,0,0,5.9086,5.9102,5.9116,5.9126,5.9141,5.9168,5.9211,5.9237,5.9256,5.9272,5.9307,5.9349,5.9323,5.9336,5.9322,5.9353,5.943,5.932,5.932,5.934,5.9513,5.9534,5.9549,5.9414,5.9416,5.9418,5.9512,0,5.9178,5.9253,5.924,5.9313,5.9346,5.9314,5.9352,5.9364,5.9362,5.9389,5.9386,5.9416,5.938,5.9388,5.9417,5.9415,5.9465,5.9408,5.9445,5.9446,5.9442,5.9565,5.9586,5.9674,5.9524,5.9526,5.9527,0,5.9294,5.9317,5.9394,5.9404,5.9417,5.9451,5.9475,5.9502,5.9515,5.9511,5.9527,5.9508,5.9549,5.9503,5.956,5.9522,5.9536,5.9537,5.954,5.9542,5.9491,5.9569,5.9702,5.9715,5.9546,5.9544,5.9543,0,5.9379,5.9429,5.9481,5.9491,5.9505,5.9529,5.9535,5.9547,5.9564,5.9584,5.9595,5.962,5.9633,5.9652,5.964,5.9608,5.9698,5.9651,5.9695,5.9696,5.9715,5.9713,5.9851,5.9726,5.9726,5.9726,5.9725,0,5.9482,5.953,5.9519,5.9551,5.9604,5.9589,5.9641,5.9643,5.9654,5.9685,5.9659,5.9688,5.9671,5.9698,5.9689,5.9737,5.9743,5.9741,5.9737,5.9742,5.9743,5.975,5.9744,5.9729,5.9728,5.9728,5.9727,0,5.9584,5.958,5.9634,5.9644,5.9647,5.9685,5.9693,5.9722,5.9719,5.9759,5.9767,5.9762,5.9794,5.9784,5.9817,5.9811,5.9872,5.9861,5.9868,5.9865,5.9909,5.9905,6.0056,6.0074,5.9938,5.994,5.9941,0,5.965,5.9686,5.97,5.972,5.973,5.9762,5.978,5.9767,5.9786,5.9805,5.9832,5.9862,5.9885,5.9937,5.9935,5.9961,5.995,6.0001,5.9953,5.9957,5.995,5.9947,5.995,6.001,6.0012,6.0013,6.0014,0,5.9767,5.9763,5.9791,5.9819,5.9842,5.9863,5.9881,5.9898,5.9886,5.9909,5.9943,5.9961,5.9996,6.0026,6.0049,6.0054,6.0032,6.003,6.0041,6.0046,6.0048,6.0047,5.9893,6.0025,6.0024,6.0023,6.0023,6.0022,5.9852,5.9883,5.9898,5.9931,5.9944,5.9962,5.999,5.9992,6.002,6.0049,6.0039,6.0077,6.0089,6.0119,6.0128,6.0156,6.0136,6.0153,6.0157,6.0161,6.0166,6.0045,6.016,6.016,6.016,6.016,6.0159,0,5.9967,5.9976,6.0006,6.0033,6.0059,6.0038,6.0057,6.0079,6.0114,6.0129,6.0153,6.0191,6.022,6.0221,6.0248,6.0271,6.0261,6.0278,6.0275,6.0277,6.0183,6.017,6.0285,6.0285,6.0285,6.0285,6.0285,6.0285,6.0029,6.0081,6.008,6.0137,6.0145,6.0184,6.0196,6.0213,6.0225,6.0269,6.0294,6.0295,6.0305,6.0332,6.0358,6.0357,6.0368,6.0389,6.0384,6.0296,6.0284,6.0272,6.0259,6.0391,6.0392,6.0476,6.0477,6.0477]}]]